Skip Page Navigation
NASA JPL Caltech
NASA Logo - Jet Propulsion Laboratory + View the NASA Portal
+ Center for Near-Earth Object Studies
JPL Home Earth Solar System Stars & Galaxies Technology
JPL Solar System Dynamics
BODIES ORBITS EPHEMERIDES TOOLS PHYSICAL DATA DISCOVERY FAQ SITE MAP
IMPORTANT: The SSD Announcement email list is now available. Major changes are coming in the near future, including possible hostname and/or URL changes. To be notified of such changes, subscribe to this email list.

Please visit this page for more details.


JPL Small-Body Database Browser
Search: [ help ]  
56133 (1999 CX51)
Classification: Main-belt Asteroid          SPK-ID: 2056133
Ephemeris | Orbit Diagram | Orbital Elements | Mission Design | Physical Parameters | Discovery Circumstances | Close-Approach Data ]

[ show orbit diagram ]
Orbital Elements at Epoch 2459000.5 (2020-May-31.0) TDB
Reference: JPL 18 (heliocentric ecliptic J2000)
 Element Value Uncertainty (1-sigma)   Units 
e .1076285172750681 6.3151e-08  
a 2.595063051476276 1.2879e-08 au
q 2.315760263010571 1.6272e-07 au
i 13.89944740734829 7.0849e-06 deg
node 353.9282451907869 1.8745e-05 deg
peri 72.44033104664305 4.4698e-05 deg
M 106.1941279181842 3.6319e-05 deg
tp 2458550.079342472691
(2019-Mar-07.57934247)
0.00015413 TDB
period 1526.934114801134
4.18
1.1367e-05
3.112e-08
d
yr
n .2357665576467167 1.7551e-09 deg/d
Q 2.874365839941981 1.4265e-08 au
  Orbit Determination Parameters
   # obs. used (total)      733  
   data-arc span      8137 days (22.28 yr)  
   first obs. used      1997-10-25  
   last obs. used      2020-02-04  
   planetary ephem.      DE431  
   SB-pert. ephem.      SB431-N16  
   condition code      0  
   norm. resid. RMS      .54856  
   source      ORB  
   producer      Otto Matic  
   solution date      2020-Feb-23 11:42:35  

Additional Information
 Earth MOID = 1.36953 au 
 Jupiter MOID = 2.43301 au 
 T_jup = 3.368 
[ hide covariance matrix ]
Orbital Elements at Epoch 2456847.5 (2014-Jul-09.0) TDB
Reference: JPL 18 (heliocentric ecliptic J2000)
 Element Value Uncertainty (1-sigma)   Units 
e .1059379789983392 6.2396e-08  
q 2.320593147390364 1.6032e-07 au
tp 2457023.792269800942
(2015-Jan-01.29226980)
0.00015872 TDB
node 353.9593515917144 1.8745e-05 deg
peri 72.77813723568052 4.5416e-05 deg
i 13.89854955813857 7.0811e-06 deg
  Orbit Determination Parameters
   # obs. used (total)      733  
   data-arc span      8137 days (22.28 yr)  
   first obs. used      1997-10-25  
   last obs. used      2020-02-04  
   planetary ephem.      DE431  
   SB-pert. ephem.      SB431-N16  
   condition code      0  
   norm. resid. RMS      .54856  
   source      ORB  
   producer      Otto Matic  
   solution date      2020-Feb-23 11:42:35  

Additional Information
 Jupiter MOID = 2.43301 au 
 T_jup = 3.368 
Orbit Covariance (6×6)
  e q tp node peri i
e 3.89331277031359E-15 -9.978205673348221E-15 -7.098947291205559E-12 3.350047125974169E-14 -1.911703755444768E-12 -2.106886083072834E-14
q -9.978205673348221E-15 2.570284984845521E-14 1.815703090341294E-11 -8.631352949665671E-14 4.884831291547886E-12 5.442393181920747E-14
tp -7.098947291205559E-12 1.815703090341294E-11 2.519325030591867E-8 -9.294235815149071E-11 6.578429898510829E-9 4.146588743001759E-11
node 3.350047125974169E-14 -8.631352949665671E-14 -9.294235815149071E-11 3.513690116203755E-10 -3.646707348238269E-10 4.566031151790775E-11
peri -1.911703755444768E-12 4.884831291547886E-12 6.578429898510829E-9 -3.646707348238269E-10 2.062641384401046E-9 -3.349699725358981E-11
i -2.106886083072834E-14 5.442393181920747E-14 4.146588743001759E-11 4.566031151790775E-11 -3.349699725358981E-11 5.014197912575947E-11

Ephemeris | Orbit Diagram | Orbital Elements | Mission Design | Physical Parameters | Discovery Circumstances | Close-Approach Data ]

Physical Parameter Table
Parameter Symbol Value Units Sigma Reference Notes
absolute magnitude H 15.3   n/a MPO452932  

56133 (1999 CX51)          Discovered 1999-Feb-10 by LINEAR at Socorro
Reference: 20030318/Numbers.arcLast Updated: 2004-04-19

[ show close-approach data ]
Alternate Designations
 1999 CX51 = 2001 OA88 
Ephemeris | Orbit Diagram | Orbital Elements | Mission Design | Physical Parameters | Discovery Circumstances | Close-Approach Data ]
ABOUT SSD CREDITS/AWARDS PRIVACY/COPYRIGHT GLOSSARY LINKS
FirstGov 2020-Mar-29 01:25 UT
(server date/time)  
NASA Home Page
Site Manager:   Ryan S. Park
Webmaster  Alan B. Chamberlin